#timestamp,LO_Frequency,Hit,StdDev 
1702213215.0,286047001.4,N
1702213215.9,286047001.4,N
1702213235.8,286047002.7,N
1702213255.6,286047001.7,N
1702213275.5,286047002.2,N
1702213295.3,286047002.8,N
1702213315.1,286047002.6,N
1702213335.9,286047001.6,N
1702213355.7,286046999.9,N
1702213375.5,286047000.7,N
1702213395.4,286046999.9,N
1702213415.2,286047002.6,N
1702213435.1,286047002.4,N
1702213436.0,286047002.4,N
1702213455.8,286047002.7,N
1702213475.6,286047000.9,N
1702213495.5,286047002.2,N
1702213515.3,286047000.9,N
1702213535.1,286047000.1,N
1702213555.9,286047002.7,N
1702213575.7,286047002.5,N
1702213595.5,286047000.4,N
1702213615.4,286047001.0,N
1702213635.2,286046999.9,N
1702213655.1,286047000.9,N
1702213656.0,286047000.9,N
1702213675.8,286047001.0,N
1702213695.6,286046998.3,N
1702213715.5,286047000.3,N
1702213735.3,286046999.9,N
1702213755.1,286046998.3,N
1702213775.9,286047000.8,N
1702213795.7,286046998.6,N
1702213815.6,286047000.0,N
1702213835.4,286046999.9,N
1702213855.2,286047001.1,N
1702213875.1,286046998.6,N
1702213876.0,286046998.6,N
1702213895.8,286047000.9,N
1702213915.7,286046999.9,N
1702213935.5,286047000.2,N
1702213955.3,286046998.6,N
1702213975.2,286046998.6,N
1702213995.0,286046998.1,N
1702213995.9,286046998.1,N
1702214015.7,286047000.2,N
1702214035.6,286047000.3,N
1702214055.4,286047002.0,N
1702214075.3,286047002.4,N
1702214095.1,286047004.2,Y
1702214115.8,286047002.2,P
1702214135.7,286047000.1,N
1702214155.5,286047000.9,N
1702214175.3,286046999.9,N
1702214195.2,286047000.8,N
1702214215.0,286047002.6,Y
1702214215.9,286047002.6,P
1702214235.8,286047001.0,N
1702214255.6,286046999.0,N
1702214275.4,286046998.2,N
1702214295.3,286046998.3,N
1702214315.1,286046998.2,N
1702214335.9,286046998.7,N
1702214355.7,286046998.2,N
1702214375.5,286047000.7,N
1702214395.4,286047001.1,N
1702214415.2,286046998.5,N
1702214435.0,286046996.7,N
1702214435.9,286046996.7,N
1702214455.8,286046998.3,N
1702214475.6,286046996.9,N
1702214495.5,286046997.2,N
1702214515.3,286046997.5,N
1702214535.1,286046996.5,N
1702214555.9,286046997.0,N
1702214575.7,286046998.0,N
1702214595.5,286046996.7,N
1702214615.4,286046998.6,N
1702214635.2,286046998.1,N
1702214655.1,286046999.7,N
1702214656.0,286046999.7,N
1702214675.8,286047001.0,N
1702214695.6,286047000.5,N
1702214715.5,286046998.6,N
1702214735.3,286046998.8,N
1702214755.1,286046998.7,N
1702214775.9,286047000.3,N
1702214795.7,286047001.0,N
1702214815.6,286046999.0,N
1702214835.4,286046997.7,N
1702214855.2,286046996.6,N
1702214875.1,286046997.2,N
1702214876.0,286046997.2,N
1702214895.8,286046998.6,N
1702214915.6,286046998.3,N
1702214935.5,286047000.6,N
1702214955.3,286046996.8,N
1702214975.2,286046999.4,N
1702214995.9,286046999.9,N
1702215015.7,286046998.3,N
1702215035.6,286046999.3,N
1702215055.4,286046997.7,N
1702215075.2,286046997.8,N
1702215095.1,286046999.4,N
1702215096.0,286046999.4,N
1702215115.8,286046998.4,N
1702215135.7,286047001.2,N
1702215155.5,286047000.6,N
1702215175.3,286046999.2,N
1702215195.2,286046997.3,N
1702215215.0,286046996.5,N
1702215215.9,286046996.5,N
1702215235.7,286046996.5,N
1702215255.6,286046997.1,N
1702215275.4,286046997.8,N
1702215295.3,286046994.9,Y
1702215315.1,286046997.3,P
1702215316.0,286046997.3,P
1702215335.8,286046999.1,N
1702215355.7,286046996.6,Y
1702215375.5,286047001.0,P
1702215395.4,286046999.5,N
1702215415.2,286046998.2,N
1702215435.0,286046996.6,N
1702215435.9,286046996.6,N
1702215455.8,286046997.7,N
1702215475.6,286046996.7,N
1702215495.4,286046998.4,N
1702215515.3,286047001.2,N
1702215535.1,286047001.2,N
1702215555.9,286046999.4,N
1702215575.7,286046999.6,N
1702215595.5,286046997.0,N
1702215615.4,286046996.7,N
1702215635.2,286046997.4,N
1702215655.0,286046999.5,N
1702215655.9,286046999.5,N
1702215675.8,286046999.2,N
1702215695.6,286046999.0,N
1702215715.5,286046999.5,N
1702215735.3,286046998.7,N
1702215755.1,286046998.6,N
1702215775.9,286046999.4,N
1702215795.7,286046999.1,N
1702215815.5,286046996.9,N
1702215835.4,286047000.8,N
1702215855.2,286047000.5,N
1702215875.1,286047001.1,N
1702215876.0,286047001.1,N
1702215895.8,286047000.9,N
1702215915.6,286046998.7,N
1702215935.5,286046999.3,N
1702215955.3,286046996.7,N
1702215975.1,286047000.8,N
1702215995.9,286046998.9,N
1702216015.7,286046996.7,N
1702216035.6,286046996.6,N
1702216055.4,286046999.5,N
1702216075.2,286046996.6,N
1702216095.1,286046997.2,N
1702216096.0,286046997.2,N
1702216115.8,286046999.0,N
1702216135.6,286047001.1,N
1702216155.5,286046999.4,N
1702216175.3,286046999.6,N
1702216195.2,286046999.0,N
1702216215.9,286046999.0,N
1702216235.7,286046996.7,N
1702216255.6,286046997.7,N
1702216275.4,286046996.5,N
1702216295.2,286046998.9,N
1702216315.1,286046999.0,N
1702216316.0,286046999.0,N
1702216335.8,286046998.5,N
1702216355.7,286046999.3,N
1702216375.5,286046998.4,N
1702216395.3,286046996.5,N
1702216415.2,286046999.2,N
1702216435.0,286046998.9,N
1702216435.9,286046998.9,N
1702216455.7,286046998.4,N
1702216475.6,286046999.1,N
1702216495.4,286046998.4,N
1702216515.3,286046999.5,N
1702216535.1,286046998.6,N
1702216536.0,286046998.6,N
1702216555.8,286046999.4,N
1702216575.7,286046999.1,N
1702216595.5,286047001.1,N
1702216615.3,286046999.0,N
1702216635.2,286046998.2,N
1702216655.0,286046999.3,N
1702216655.9,286046999.3,N
1702216675.8,286046999.0,N
1702216695.6,286046998.9,N
1702216715.4,286046998.4,N
1702216735.3,286046998.5,N
1702216755.1,286046999.4,N
1702216775.9,286046997.3,Y
1702216795.7,286046998.8,P
